TimeCST,TemperatureF,Dew PointF,Humidity,Sea Level PressureIn,VisibilityMPH,Wind Direction,Wind SpeedMPH,Gust SpeedMPH,PrecipitationIn,Events,Conditions,WindDirDegrees,DateUTC
12:53 AM,24.1,19.0,81,30.19,10.0,NW,3.5,-,N/A,,Clear,310,2013-02-12 06:53:00
1:53 AM,25.0,19.9,81,30.19,10.0,Calm,Calm,-,N/A,,Clear,0,2013-02-12 07:53:00
2:53 AM,19.9,18.0,92,30.17,10.0,Calm,Calm,-,N/A,,Clear,0,2013-02-12 08:53:00
3:53 AM,17.1,14.0,88,30.17,10.0,South,4.6,-,N/A,,Clear,190,2013-02-12 09:53:00
4:53 AM,19.0,16.0,88,30.16,10.0,Calm,Calm,-,N/A,,Clear,0,2013-02-12 10:53:00
5:53 AM,19.0,16.0,88,30.17,10.0,Calm,Calm,-,N/A,,Clear,0,2013-02-12 11:53:00
6:53 AM,19.0,16.0,88,30.14,10.0,Calm,Calm,-,N/A,,Clear,0,2013-02-12 12:53:00
7:53 AM,19.9,17.1,89,30.14,9.0,Calm,Calm,-,N/A,,Clear,0,2013-02-12 13:53:00
8:53 AM,25.0,21.9,88,30.14,8.0,Calm,Calm,-,N/A,,Clear,0,2013-02-12 14:53:00
9:53 AM,32.0,26.1,79,30.13,10.0,South,6.9,-,N/A,,Clear,180,2013-02-12 15:53:00
10:53 AM,37.9,25.0,60,30.12,10.0,South,8.1,-,N/A,,Clear,190,2013-02-12 16:53:00
11:53 AM,44.1,23.0,43,30.09,10.0,SW,6.9,-,N/A,,Clear,230,2013-02-12 17:53:00
12:53 PM,46.9,21.0,36,30.06,10.0,SW,9.2,17.3,N/A,,Clear,230,2013-02-12 18:53:00
1:53 PM,48.9,19.9,32,30.03,10.0,SSW,11.5,-,N/A,,Clear,210,2013-02-12 19:53:00
2:53 PM,48.9,19.0,31,30.00,10.0,WSW,9.2,-,N/A,,Clear,250,2013-02-12 20:53:00
3:53 PM,50.0,19.0,29,29.98,10.0,SW,9.2,-,N/A,,Clear,220,2013-02-12 21:53:00
4:53 PM,48.0,19.9,33,29.96,10.0,WSW,10.4,-,N/A,,Clear,240,2013-02-12 22:53:00
5:53 PM,43.0,19.9,40,29.96,10.0,SW,8.1,-,N/A,,Clear,220,2013-02-12 23:53:00
6:53 PM,39.0,19.0,45,29.97,10.0,SSW,9.2,-,N/A,,Clear,200,2013-02-13 00:53:00
7:53 PM,37.0,19.9,50,29.96,10.0,SW,11.5,-,N/A,,Clear,220,2013-02-13 01:53:00
8:53 PM,36.0,21.9,57,29.95,10.0,SW,11.5,-,N/A,,Clear,230,2013-02-13 02:53:00
9:53 PM,35.1,23.0,61,29.96,10.0,WSW,10.4,-,N/A,,Clear,240,2013-02-13 03:53:00
10:53 PM,33.1,23.0,66,29.96,10.0,WSW,10.4,-,N/A,,Clear,250,2013-02-13 04:53:00
11:53 PM,32.0,23.0,69,29.95,10.0,West,12.7,-,N/A,,Clear,260,2013-02-13 05:53:00